User: anonymous   Login
Location: Albany
(35.0000°S, 118.0000°E)
Time: 10:50:36
(UTC-04:00)
Language:

JAS-1B - Orbit

View from above orbital plane
View from above orbital plane
View from above satellite
View from above satellite

Ground track
Ground track

The orbit data is extracted from the following two-line orbital elements,

1 20480U 90013C   15245.22326429 -.00000016  00000-0  29587-4 0  9997
2 20480  99.0563 130.9865 0541032  73.1015  35.3078 12.83407381197833
Epoch (UTC): 02 September 2015 05:21:30
Eccentricity: 0.0541032
inclination: 99.0563°
perigee height: 911 km
apogee height: 1745 km
right ascension of ascending node: 130.9865°
argument of perigee: 73.1015°
revolutions per day: 12.83407381
mean anomaly at epoch: 35.3078°
orbit number at epoch: 19783

The dashed part of the orbit path shows where the satellite is in the earth's shadow,  

DLR